EJA823 KMYF-KDEN

Flight info

Callsign EJA823
Flight time N/A
Altitude 45000
Route PADRZ2 CHKNN DAG J9 LAS HBU CRUDD TBARR4
Aircraft C700/M-VGDW/C

Departure

Time 2026-04-23 05:00
Airport Montgomery-Gibbs Executive Airport (KMYF)

Arrival

Time N/A
Airport Denver International Airport (KDEN)
Time Latitude Longitude Altitude Speed Heading
2026-04-23 04:32 32.81382 -117.14069 425 ft 0 kts 23°
2026-04-23 04:47 32.81408 -117.14024 425 ft 10 kts 92°
2026-04-23 04:47 32.81377 -117.13931 419 ft 16 kts 115°
2026-04-23 04:48 32.81315 -117.13774 422 ft 15 kts 115°
2026-04-23 04:48 32.81277 -117.13674 420 ft 9 kts 115°
2026-04-23 04:48 32.81249 -117.13602 424 ft 9 kts 114°
2026-04-23 04:48 32.81255 -117.13570 424 ft 7 kts 39°
2026-04-23 04:49 32.81260 -117.13566 419 ft 0 kts 27°
2026-04-23 04:50 32.81261 -117.13566 419 ft 0 kts 27°
2026-04-23 04:55 32.81272 -117.13559 422 ft 7 kts 26°
2026-04-23 04:55 32.81331 -117.13526 420 ft 0 kts 25°
2026-04-23 04:56 32.81334 -117.13524 421 ft 2 kts 25°
2026-04-23 04:56 32.81336 -117.13523 422 ft 0 kts 25°
2026-04-23 04:56 32.81340 -117.13520 423 ft 2 kts 25°
2026-04-23 04:56 32.81375 -117.13501 421 ft 8 kts 24°
2026-04-23 04:57 32.81411 -117.13455 416 ft 8 kts 86°
2026-04-23 04:57 32.81393 -117.13398 417 ft 8 kts 115°
2026-04-23 04:57 32.81366 -117.13325 421 ft 12 kts 114°
2026-04-23 04:57 32.81332 -117.13237 421 ft 11 kts 114°
2026-04-23 04:58 32.81310 -117.13179 423 ft 1 kts 121°
2026-04-23 04:58 32.81298 -117.13153 424 ft 6 kts 115°
2026-04-23 04:58 32.81251 -117.13124 421 ft 4 kts 198°
2026-04-23 04:58 32.81207 -117.13144 425 ft 1 kts 166°
2026-04-23 04:59 32.81211 -117.13135 425 ft 0 kts 30°
2026-04-23 04:59 32.81212 -117.13134 425 ft 0 kts 30°
2026-04-23 04:59 32.81241 -117.13122 421 ft 15 kts 17°
2026-04-23 04:59 32.81306 -117.13180 419 ft 18 kts 295°
2026-04-23 05:00 32.81406 -117.13430 419 ft 75 kts 295°
2026-04-23 05:00 32.81757 -117.14323 534 ft 154 kts 296°
2026-04-23 05:00 32.82302 -117.15580 1154 ft 185 kts 298°
2026-04-23 05:00 32.82930 -117.17016 1980 ft 200 kts 297°
2026-04-23 05:01 32.83558 -117.18509 2845 ft 208 kts 297°
2026-04-23 05:01 32.84213 -117.20073 3768 ft 214 kts 297°
2026-04-23 05:01 32.84913 -117.21733 4778 ft 238 kts 296°
2026-04-23 05:01 32.85691 -117.23578 5973 ft 250 kts 296°
2026-04-23 05:02 32.86395 -117.25245 6949 ft 204 kts 296°
2026-04-23 05:02 32.86971 -117.26621 7572 ft 173 kts 296°
2026-04-23 05:02 32.87481 -117.27828 7982 ft 157 kts 296°
2026-04-23 05:02 32.87980 -117.29011 8004 ft 163 kts 296°
2026-04-23 05:03 32.88498 -117.30243 8010 ft 169 kts 296°
2026-04-23 05:03 32.89038 -117.31526 8018 ft 184 kts 296°
2026-04-23 05:03 32.89646 -117.32988 8442 ft 198 kts 296°
2026-04-23 05:03 32.90283 -117.34481 8966 ft 207 kts 296°